Weather History for Rock Hill, SC

Change the Weather History Date:

Friday, February 10, 2012

  Actual Average Record
Temperature  
Mean Temperature 39 °F -  
Max Temperature 50 °F 52 °F 75 °F (1954)
Min Temperature 28 °F 30 °F 12 °F (1979)
Degree Days  
Heating Degree Days 26    
Moisture  
Dew Point 36 °F    
Average Humidity 83    
Maximum Humidity 96    
Minimum Humidity 66    
Precipitation  
Precipitation 0.00 in - - ()
Sea Level Pressure  
Sea Level Pressure 30.09 in    
Wind  
Wind Speed 4 mph (SSW)    
Max Wind Speed 8 mph    
Max Gust Speed -    
Visibility 7 miles    
Events      
Averages and records for this station are not official NWS values.
T = Trace of Precipitation, MM = Missing Value Source: NWS Daily Summary

Daily Weather History Graph

Daily Weather History Graph

Search for Another Location

Airport:

Trip Planner

Search our weather history database for the weather conditions in past years. The results will help you decide how hot, cold, wet, or windy it might be!

Date:

Astronomy

Feb. 10, 2012 Rise Set
Actual Time 7:15 AM EST 6:01 PM EST
Civil Twilight 6:49 AM EST 6:27 PM EST
Nautical Twilight 6:19 AM EST 6:57 PM EST
Astronomical Twilight 5:50 AM EST 7:27 PM EST
Moon 9:26 PM EST (2/10) 8:33 AM EST (2/10)
Length of Visible Light 11h 38m
Length of Day
10h 45m
Waning Gibbous, 90% of the Moon is Illuminated
Feb 10
Waning Gibbous
Feb 14
Last Quarter
Feb 21
New
Feb 29
First Quarter
Mar 8
Full

Hourly Weather History & Observations

Time (EST) Temp. Windchill Dew Point Humidity Pressure Visibility Wind Dir Wind Speed Gust Speed Precip Events Conditions
12:54 AM 28.9 °F 23.9 °F 28.0 °F 96% 30.22 in 9.0 mi SSW 4.6 mph - N/A   Clear
1:54 AM 30.9 °F 26.2 °F 28.9 °F 92% 30.21 in 9.0 mi SSW 4.6 mph - N/A   Clear
2:54 AM 30.9 °F 25.2 °F 28.9 °F 92% 30.19 in 9.0 mi SSW 5.8 mph - N/A   Clear
3:54 AM 32.0 °F 27.5 °F 30.0 °F 92% 30.18 in 8.0 mi SSW 4.6 mph - N/A   Clear
4:54 AM 32.0 °F 27.5 °F 30.0 °F 92% 30.17 in 8.0 mi SSW 4.6 mph - N/A   Clear
5:54 AM 30.9 °F 26.2 °F 30.0 °F 96% 30.17 in 8.0 mi SSW 4.6 mph - N/A   Clear
6:54 AM 30.0 °F - 28.9 °F 96% 30.17 in 6.0 mi Calm Calm - N/A   Clear
7:54 AM 32.0 °F - 30.9 °F 96% 30.19 in 5.0 mi Calm Calm - N/A   Clear
8:54 AM 36.0 °F 33.3 °F 34.0 °F 93% 30.20 in 5.0 mi South 3.5 mph - N/A   Clear
9:54 AM 39.0 °F 36.8 °F 37.0 °F 93% 30.19 in 5.0 mi SSW 3.5 mph - N/A   Clear
10:24 AM 39.2 °F 35.9 °F 35.6 °F 87% 30.16 in 5.0 mi SSW 4.6 mph - N/A   Mostly Cloudy
10:54 AM 41.0 °F - 37.0 °F 86% 30.16 in 5.0 mi Calm Calm - N/A   Mostly Cloudy
11:02 AM 42.8 °F 41.1 °F 37.4 °F 81% 30.14 in 5.0 mi SSW 3.5 mph - N/A   Haze
11:25 AM 42.8 °F 38.6 °F 37.4 °F 81% 30.14 in 5.0 mi SSW 6.9 mph - N/A   Haze
11:54 AM 42.1 °F 39.2 °F 37.0 °F 82% 30.14 in 6.0 mi South 4.6 mph - N/A   Haze
12:15 PM 44.6 °F 41.4 °F 37.4 °F 76% 30.10 in 6.0 mi SSW 5.8 mph - N/A   Haze
12:50 PM 46.4 °F 42.9 °F 37.4 °F 71% 30.07 in 6.0 mi South 6.9 mph - N/A   Haze
12:54 PM 46.0 °F 41.9 °F 37.9 °F 73% 30.09 in 6.0 mi SSW 8.1 mph - N/A   Haze
1:01 PM 46.4 °F 43.5 °F 37.4 °F 71% 30.07 in 6.0 mi SSW 5.8 mph - N/A   Haze
1:09 PM 46.4 °F 43.5 °F 37.4 °F 71% 30.06 in 6.0 mi SW 5.8 mph - N/A   Haze
1:54 PM 48.0 °F - 39.0 °F 71% 30.07 in 7.0 mi SW 6.9 mph - N/A   Partly Cloudy
2:54 PM 48.9 °F - 39.0 °F 69% 30.06 in 8.0 mi WSW 4.6 mph - N/A   Overcast
3:54 PM 50.0 °F - 39.0 °F 66% 30.04 in 8.0 mi SSW 5.8 mph - N/A   Overcast
4:54 PM 48.9 °F - 39.0 °F 69% 30.00 in 8.0 mi SE 5.8 mph - N/A   Overcast
5:54 PM 48.0 °F - 39.9 °F 74% 29.98 in 8.0 mi South 3.5 mph - N/A   Overcast
6:54 PM 46.9 °F - 39.9 °F 77% 29.99 in 8.0 mi South 4.6 mph - N/A   Overcast
7:54 PM 46.0 °F 43.9 °F 39.9 °F 79% 29.98 in 8.0 mi South 4.6 mph - N/A   Overcast
8:54 PM 45.0 °F 43.5 °F 39.9 °F 82% 29.96 in 8.0 mi SSW 3.5 mph - N/A   Overcast
9:54 PM 45.0 °F - 39.9 °F 82% 29.95 in 8.0 mi Calm Calm - N/A   Overcast
10:54 PM 45.0 °F - 41.0 °F 86% 29.91 in 7.0 mi Calm Calm - N/A   Overcast
11:54 PM 45.0 °F 42.6 °F 41.0 °F 86% 29.91 in 7.0 mi SSW 4.6 mph - N/A   Overcast